Mt. Pocono, PA

11:16 AM EDT on May 25, 2017 (GMT -0400)
Pocono Mountains Municipal

Weather History for KMPO - April, 2013

Change the Weather History Date:

Thursday, April 18, 2013

  Actual Average Record
Temperature  
Mean Temperature 49 °F 46 °F  
Max Temperature 54 °F 57 °F 88 °F (1976)
Min Temperature 44 °F 36 °F 20 °F (1928)
Degree Days  
Heating Degree Days 16 19  
Month to date heating degree days 358 398  
Since 1 July heating degree days 6230 6496  
Cooling Degree Days 0 0  
Month to date cooling degree days 1 0  
Year to date cooling degree days 1 0  
Moisture  
Dew Point 42 °F    
Average Humidity 75    
Maximum Humidity 100    
Minimum Humidity 50    
Precipitation  
Precipitation 0.01 in 0.11 in 1.60 in (1924)
Month to date precipitation 0.94 2.68  
Year to date precipitation 7.80 11.77  
Sea Level Pressure  
Sea Level Pressure 30.20 in    
Wind  
Wind Speed 13 mph (SE)    
Max Wind Speed 22 mph    
Max Gust Speed 30 mph    
Visibility 5 miles    
Events Fog , Rain    
T = Trace of Precipitation, MM = Missing Value Source: NWS Daily Summary

Daily Weather History Graph

Daily Weather History Graph

Search for Another Location

Airport or City:

Trip Planner

Search our weather history database for the weather conditions in past years. The results will help you decide how hot, cold, wet, or windy it might be!

Date:

Astronomy

Apr. 18, 2013 Rise Set
Actual Time 6:17 AM EDT 7:44 PM EDT
Civil Twilight 5:48 AM EDT 8:13 PM EDT
Nautical Twilight 5:13 AM EDT 8:48 PM EDT
Astronomical Twilight 4:37 AM EDT 9:25 PM EDT
Moon 12:26 PM EDT (4/18) 1:58 AM EDT (4/18)
Length of Visible Light 14h 25m
Length of Day
13h 27m
First Quarter, 51% of the Moon is Illuminated
Apr 18
First Quarter
Apr 25
Full
May 2
Last Quarter
May 9
New
May 18
First Quarter

Hourly Weather History & Observations

Time (EDT) Temp. Windchill Dew Point Humidity Pressure Visibility Wind Dir Wind Speed Gust Speed Precip Events Conditions
12:53 AM 48.9 °F - 30.0 °F 48% 30.29 in 10.0 mi East 6.9 mph - N/A   Clear
1:53 AM 46.9 °F - 30.0 °F 52% 30.27 in 10.0 mi ESE 5.8 mph - N/A   Clear
2:53 AM 46.9 °F - 32.0 °F 56% 30.27 in 10.0 mi ESE 6.9 mph - N/A   Clear
3:53 AM 46.9 °F - 34.0 °F 61% 30.26 in 10.0 mi SE 6.9 mph - N/A   Clear
4:53 AM 48.0 °F - 34.0 °F 58% 30.25 in 10.0 mi SE 6.9 mph - N/A   Overcast
5:53 AM 46.9 °F - 35.1 °F 63% 30.25 in 10.0 mi SE 6.9 mph - N/A   Overcast
6:53 AM 46.9 °F - 34.0 °F 61% 30.27 in 10.0 mi ESE 11.5 mph - N/A   Overcast
7:53 AM 48.0 °F - 34.0 °F 58% 30.28 in 10.0 mi SE 13.8 mph - N/A   Overcast
8:16 AM 48.2 °F - 33.8 °F 58% 30.26 in 10.0 mi SE 12.7 mph - N/A   Overcast
8:53 AM 48.0 °F - 36.0 °F 63% 30.29 in 10.0 mi SE 15.0 mph - N/A   Overcast
9:10 AM 48.2 °F - 37.4 °F 66% 30.28 in 10.0 mi SE 16.1 mph 19.6 mph N/A   Overcast
9:53 AM 50.0 °F - 39.0 °F 66% 30.29 in 10.0 mi SE 17.3 mph 23.0 mph N/A   Overcast
10:03 AM 50.0 °F - 39.2 °F 66% 30.27 in 10.0 mi SE 18.4 mph 24.2 mph N/A   Overcast
10:53 AM 52.0 °F - 37.0 °F 57% 30.29 in 10.0 mi SE 17.3 mph 24.2 mph N/A   Overcast
11:53 AM 52.0 °F - 37.0 °F 57% 30.27 in 10.0 mi SE 19.6 mph 27.6 mph N/A   Overcast
12:53 PM 51.1 °F - 39.0 °F 63% 30.25 in 10.0 mi SE 17.3 mph - N/A   Overcast
1:53 PM 48.9 °F - 43.0 °F 80% 30.24 in 3.0 mi SE 13.8 mph 21.9 mph 0.00 in Rain Light Rain
2:29 PM 48.2 °F - 44.6 °F 87% 30.20 in 10.0 mi SE 18.4 mph 25.3 mph 0.00 in   Overcast
2:44 PM 48.2 °F - 44.6 °F 87% 30.20 in 6.0 mi SE 15.0 mph - 0.00 in Rain Light Rain
2:53 PM 48.0 °F - 45.0 °F 89% 30.22 in 6.0 mi SE 18.4 mph 24.2 mph 0.01 in Rain Light Rain
3:14 PM 48.2 °F - 46.4 °F 93% 30.19 in 6.0 mi SE 17.3 mph - 0.00 in   Overcast
3:38 PM 48.2 °F - 46.4 °F 93% 30.18 in 1.5 mi SE 11.5 mph - 0.00 in   Overcast
3:53 PM 46.9 °F - 46.0 °F 97% 30.20 in 0.5 mi SE 15.0 mph 20.7 mph 0.00 in Fog Fog
4:07 PM 46.4 °F 40.7 °F 46.4 °F 100% 30.16 in 0.2 mi SE 12.7 mph - 0.00 in Fog , Rain Light Rain
4:21 PM 46.4 °F 41.1 °F 46.4 °F 100% 30.17 in 1.0 mi SE 11.5 mph - 0.00 in Rain Light Rain
4:37 PM 46.4 °F 40.1 °F 46.4 °F 100% 30.16 in 0.5 mi SE 15.0 mph 20.7 mph 0.00 in Fog , Rain Light Rain
4:44 PM 46.4 °F 40.4 °F 46.4 °F 100% 30.16 in 0.2 mi SE 13.8 mph 20.7 mph 0.00 in Fog , Rain Light Rain
4:53 PM 46.9 °F - 46.0 °F 97% 30.19 in 0.2 mi SE 10.4 mph - 0.00 in Fog Fog
5:17 PM 46.4 °F 40.4 °F 46.4 °F 100% 30.16 in 0.8 mi SE 13.8 mph 20.7 mph N/A   Mist
5:25 PM 46.4 °F 40.1 °F 46.4 °F 100% 30.15 in 1.2 mi SE 15.0 mph 21.9 mph N/A   Overcast
5:53 PM 46.9 °F - 46.0 °F 97% 30.17 in 1.5 mi SE 12.7 mph - N/A   Overcast
6:39 PM 48.2 °F - 46.4 °F 93% 30.14 in 2.0 mi SE 10.4 mph 18.4 mph N/A   Overcast
6:53 PM 48.0 °F - 46.0 °F 93% 30.16 in 1.8 mi SE 11.5 mph - N/A   Overcast
7:12 PM 48.2 °F - 46.4 °F 93% 30.13 in 2.0 mi SE 10.4 mph - N/A   Overcast
7:33 PM 48.2 °F - 46.4 °F 93% 30.12 in 1.2 mi SE 11.5 mph - N/A   Overcast
7:45 PM 48.2 °F - 46.4 °F 93% 30.12 in 0.8 mi SE 11.5 mph - N/A   Overcast
7:53 PM 48.0 °F - 46.9 °F 96% 30.13 in 0.5 mi ESE 13.8 mph - N/A Fog Fog
8:01 PM 48.2 °F - 46.4 °F 93% 30.11 in 0.2 mi SE 12.7 mph - N/A Fog Fog
8:53 PM 48.9 °F - 48.0 °F 97% 30.12 in 0.2 mi SE 12.7 mph - N/A Fog Fog
9:53 PM 50.0 °F - 48.9 °F 96% 30.11 in 0.2 mi SE 11.5 mph - N/A Fog Fog
10:53 PM 51.1 °F - 51.1 °F 100% 30.08 in 0.2 mi SSE 8.1 mph - N/A Fog Fog
11:53 PM 53.1 °F - 53.1 °F 100% 30.06 in 0.2 mi Variable 6.9 mph - 0.01 in Fog Fog